Regional Weather Roundup
Issued by NWS

Home | Current Version | Previous Version | Graphics & Text | Print | Product List | Glossary On
Versions: 1 2 3 4 5 6 7 8 9 10 11 12 13 14 15 16 17 18 19 20 21 22 23 24 25 26 27 28 29 30 31 32 33 34 35 36 37 38 39 40 41 42 43 44 45 46 47 48 49 50
000
ASUS43 KFSD 210102
RWRSD

WEATHER ROUNDUP FOR SOUTH DAKOTA
NATIONAL WEATHER SERVICE SIOUX FALLS SD
800 PM CDT MON OCT 20 2014

NOTE: "FAIR" INDICATES FEW OR NO CLOUDS BELOW 12,000 FEET WITH NO
SIGNIFICANT WEATHER AND/OR OBSTRUCTIONS TO VISIBILITY.


SDZ001>005-009-010-012>017-210200-
NORTHWEST AND NORTH CENTRAL SOUTH DAKOTA

CITY           SKY/WX    TMP DP  RH WIND       PRES   REMARKS
FAITH            N/A     63  41  44 SE15      29.90F
MOBRIDGE       CLEAR     63  34  33 SE14      29.93S
$$

SDZ012>016-024>037-041>051-057-063-072>074-210200-
SOUTHWEST AND SOUTH CENTRAL SOUTH DAKOTA

CITY           SKY/WX    TMP DP  RH WIND       PRES   REMARKS
RAPID CTY ARPT CLEAR     60  45  57 CALM      29.91S
PIERRE         CLEAR     61  40  45 E12       29.94S
CUSTER         CLEAR     59  39  47 S3        30.04F
PHILIP         CLEAR     59  42  53 E7        29.90S
PINE RIDGE     CLEAR     70  38  31 S9        29.94F
SPEARFISH      FAIR      55  39  54 E3        29.93F
WINNER         FAIR      61  40  45 SE8       29.98S
$$

SDZ004>011-016>023-039-040-210200-
NORTHEAST SOUTH DAKOTA

CITY           SKY/WX    TMP DP  RH WIND       PRES   REMARKS
ABERDEEN       CLEAR     49  34  56 E6        30.01S
WATERTOWN      CLEAR     52  36  54 CALM      30.03S
SISSETON         N/A     43  37  79 CALM      30.02S
$$

SDZ017-020-022-023-036>040-048>070-210200-
SOUTHEAST SOUTH DAKOTA

CITY           SKY/WX    TMP DP  RH WIND       PRES   REMARKS
SIOUX FALLS    CLEAR     53  37  54 CALM      30.03S
HURON          CLEAR     57  34  41 SE6       30.02R
CHAMBERLAIN    CLEAR     56  37  48 SE9       29.99S
MITCHELL       CLEAR     60  36  40 SE5       30.03S
YANKTON        CLEAR     55  37  50 CALM      30.04R
$$

ABBREVIATIONS USED IN REMARKS
   TC - TEMPERATURE IN CELSIUS
  WCI - WIND CHILL INDEX
   HX - HEAT INDEX
  VSB - VISIBILITY




USA.gov is the U.S. government's official web portal to all federal, state and local government web resources and services.